Stevensville, MD

2:43 PM EST on November 18, 2017 (GMT -0500)
Stevensville

Weather History for KW29 - April, 2013

Change the Weather History Date:

Monday, April 29, 2013

  Actual Average (KESN) Record (KESN)
Temperature  
Mean Temperature 56 °F -  
Max Temperature 59 °F 69 °F 89 °F (1974)
Min Temperature 53 °F 45 °F 35 °F (1949)
Degree Days  
Heating Degree Days 9    
Growing Degree Days 6 (Base 50)    
Moisture  
Dew Point 54 °F    
Average Humidity 95    
Maximum Humidity 100    
Minimum Humidity 59    
Precipitation  
Precipitation 0.00 in - - ()
Sea Level Pressure  
Sea Level Pressure 30.12 in    
Wind  
Wind Speed 8 mph (SE)    
Max Wind Speed 16 mph    
Max Gust Speed 21 mph    
Visibility 7 miles    
Events Rain    
Averages and records for this station are not official NWS values.
T = Trace of Precipitation, MM = Missing Value Source: NWS Daily Summary

Daily Weather History Graph

Daily Weather History Graph

Search for Another Location

Airport or City:

Trip Planner

Search our weather history database for the weather conditions in past years. The results will help you decide how hot, cold, wet, or windy it might be!

Date:

Astronomy

Apr. 29, 2013 Rise Set
Actual Time 6:09 AM EDT 7:56 PM EDT
Civil Twilight 5:40 AM EDT 8:25 PM EDT
Nautical Twilight 5:06 AM EDT 8:59 PM EDT
Astronomical Twilight 4:29 AM EDT 9:37 PM EDT
Moon No Moon Rise 9:28 AM EDT (4/29)
Length of Visible Light 14h 44m
Length of Day
13h 46m
Waning Gibbous, 80% of the Moon is Illuminated
Apr 29
Waning Gibbous
May 2
Last Quarter
May 9
New
May 18
First Quarter
May 25
Full

Hourly Weather History & Observations

Time (EDT) Temp. Dew Point Humidity Pressure Visibility Wind Dir Wind Speed Gust Speed Precip Events Conditions
12:14 AM 57.2 °F 42.8 °F 59% 30.19 in 10.0 mi SE 6.9 mph - N/A   Light Drizzle
12:34 AM 57.2 °F 42.8 °F 59% 30.19 in 10.0 mi SE 9.2 mph - N/A   Scattered Clouds
12:54 AM 55.4 °F 44.6 °F 67% 30.18 in 10.0 mi SE 6.9 mph - N/A   Scattered Clouds
1:14 AM 55.4 °F 44.6 °F 67% 30.18 in 10.0 mi SE 9.2 mph - N/A   Clear
1:34 AM 55.4 °F 48.2 °F 77% 30.17 in 10.0 mi SE 5.8 mph - N/A Rain Light Rain
1:54 AM 55.4 °F 46.4 °F 72% 30.17 in 10.0 mi SE 5.8 mph - N/A   Mostly Cloudy
2:14 AM 55.4 °F 46.4 °F 72% 30.16 in 10.0 mi SE 6.9 mph - N/A   Mostly Cloudy
2:34 AM 53.6 °F 50.0 °F 88% 30.16 in 7.0 mi SE 8.1 mph - N/A Rain Light Rain
2:54 AM 53.6 °F 51.8 °F 94% 30.16 in 7.0 mi SE 4.6 mph - N/A   Drizzle
3:14 AM 53.6 °F 53.6 °F 100% 30.16 in 5.0 mi SSE 4.6 mph - N/A Rain Rain
3:34 AM 53.6 °F 53.6 °F 100% 30.15 in 5.0 mi SE 5.8 mph - N/A   Drizzle
3:54 AM 53.6 °F 53.6 °F 100% 30.15 in 7.0 mi ESE 6.9 mph - N/A   Light Drizzle
4:14 AM 53.6 °F 53.6 °F 100% 30.14 in 7.0 mi SE 5.8 mph - N/A Rain Light Rain
4:34 AM 53.6 °F 53.6 °F 100% 30.14 in 5.0 mi ESE 5.8 mph - N/A Rain Rain
4:54 AM 53.6 °F 53.6 °F 100% 30.14 in 7.0 mi ESE 5.8 mph - N/A   Drizzle
5:15 AM 53.6 °F 53.6 °F 100% 30.13 in 5.0 mi ESE 6.9 mph - N/A Rain Light Rain
5:35 AM 53.6 °F 53.6 °F 100% 30.12 in 5.0 mi ESE 9.2 mph - N/A Rain Rain
5:55 AM 53.6 °F 53.6 °F 100% 30.12 in 5.0 mi ESE 8.1 mph - N/A Rain Rain
6:15 AM 53.6 °F 53.6 °F 100% 30.12 in 5.0 mi ESE 6.9 mph - N/A   Drizzle
6:35 AM 53.6 °F 53.6 °F 100% 30.13 in 7.0 mi ESE 4.6 mph - N/A Rain Rain
6:55 AM 53.6 °F 53.6 °F 100% 30.13 in 5.0 mi ESE 6.9 mph - N/A   Drizzle
7:15 AM 53.6 °F 53.6 °F 100% 30.14 in 4.0 mi ESE 5.8 mph - N/A Rain Light Rain
7:35 AM 53.6 °F 53.6 °F 100% 30.14 in 5.0 mi ESE 8.1 mph - N/A Rain Rain
7:55 AM 53.6 °F 53.6 °F 100% 30.14 in 5.0 mi East 6.9 mph - N/A Rain Light Rain
8:15 AM 53.6 °F 53.6 °F 100% 30.14 in 5.0 mi East 5.8 mph - N/A Rain Light Rain
8:35 AM 53.6 °F 53.6 °F 100% 30.13 in 5.0 mi East 8.1 mph - N/A Rain Light Rain
8:55 AM 53.6 °F 53.6 °F 100% 30.13 in 7.0 mi East 6.9 mph - N/A Rain Light Rain
9:15 AM 55.4 °F 55.4 °F 100% 30.13 in 7.0 mi East 6.9 mph - N/A Rain Light Rain
9:35 AM 55.4 °F 55.4 °F 100% 30.12 in 7.0 mi ESE 6.9 mph - N/A   Drizzle
9:55 AM 55.4 °F 55.4 °F 100% 30.12 in 7.0 mi ESE 6.9 mph - N/A   Drizzle
10:15 AM 55.4 °F 55.4 °F 100% 30.11 in 7.0 mi ESE 9.2 mph - N/A   Light Drizzle
10:35 AM 57.2 °F 57.2 °F 100% 30.11 in 7.0 mi SE 9.2 mph - N/A Rain Rain
10:55 AM 57.2 °F 57.2 °F 100% 30.11 in 10.0 mi SSE 11.5 mph - N/A   Light Drizzle
11:15 AM 59.0 °F 59.0 °F 100% 30.12 in 10.0 mi SSE 9.2 mph 16.1 mph N/A   Light Drizzle
11:35 AM 59.0 °F 59.0 °F 100% 30.12 in 7.0 mi SSE 11.5 mph - N/A   Light Drizzle
11:55 AM 59.0 °F 59.0 °F 100% 30.11 in 7.0 mi SSE 11.5 mph 18.4 mph N/A   Drizzle
12:15 PM 59.0 °F 59.0 °F 100% 30.11 in 7.0 mi SE 10.4 mph - N/A   Drizzle
12:35 PM 59.0 °F 59.0 °F 100% 30.10 in 7.0 mi SSE 13.8 mph 18.4 mph N/A   Drizzle
12:55 PM 59.0 °F 59.0 °F 100% 30.10 in 10.0 mi SSE 13.8 mph - N/A Rain Rain
1:15 PM 59.0 °F 57.2 °F 94% 30.11 in 10.0 mi SSE 10.4 mph - N/A   Light Drizzle
1:36 PM 59.0 °F 57.2 °F 94% 30.10 in 10.0 mi SSE 9.2 mph - N/A   Light Drizzle
1:56 PM 59.0 °F 57.2 °F 94% 30.10 in 10.0 mi SE 10.4 mph - N/A   Light Drizzle
2:16 PM 59.0 °F 59.0 °F 100% 30.10 in 10.0 mi SE 9.2 mph - N/A   Overcast
2:36 PM 59.0 °F 59.0 °F 100% 30.10 in 10.0 mi SE 9.2 mph - N/A Rain Light Rain
2:56 PM 59.0 °F 59.0 °F 100% 30.09 in 10.0 mi SE 11.5 mph 18.4 mph N/A   Light Drizzle
3:16 PM 59.0 °F 55.4 °F 88% 30.09 in 10.0 mi SSE 16.1 mph - N/A   Light Drizzle
3:36 PM 59.0 °F 57.2 °F 94% 30.08 in 10.0 mi SSE 15.0 mph 19.6 mph N/A   Mostly Cloudy
3:56 PM 59.0 °F 55.4 °F 88% 30.08 in 10.0 mi SSE 12.7 mph - N/A   Mostly Cloudy
4:16 PM 59.0 °F 55.4 °F 88% 30.08 in 10.0 mi SE 11.5 mph - N/A   Mostly Cloudy
4:36 PM 59.0 °F 57.2 °F 94% 30.08 in 3.0 mi SE 10.4 mph - N/A   Overcast
4:56 PM 59.0 °F 57.2 °F 94% 30.08 in 4.0 mi SE 10.4 mph - N/A   Overcast
5:16 PM 57.2 °F 55.4 °F 94% 30.09 in 10.0 mi SE 10.4 mph 17.3 mph N/A   Overcast
5:36 PM 59.0 °F 55.4 °F 88% 30.08 in 10.0 mi ESE 12.7 mph 16.1 mph N/A   Overcast
5:56 PM 57.2 °F 55.4 °F 94% 30.08 in 5.0 mi ESE 10.4 mph - N/A   Overcast
6:16 PM 57.2 °F 55.4 °F 94% 30.08 in 4.0 mi SE 11.5 mph 19.6 mph N/A   Overcast
6:36 PM 55.4 °F 55.4 °F 100% 30.09 in 4.0 mi SE 12.7 mph - N/A   Overcast
6:56 PM 55.4 °F 55.4 °F 100% 30.09 in 3.0 mi ESE 11.5 mph 17.3 mph N/A   Overcast
7:16 PM 55.4 °F 55.4 °F 100% 30.09 in 2.0 mi ESE 11.5 mph 18.4 mph N/A Rain Light Rain
7:36 PM 55.4 °F 55.4 °F 100% 30.09 in 3.0 mi ESE 10.4 mph - N/A   Light Drizzle
7:56 PM 55.4 °F 55.4 °F 100% 30.09 in 4.0 mi ESE 11.5 mph 16.1 mph N/A   Overcast
8:16 PM 55.4 °F 55.4 °F 100% 30.09 in 7.0 mi ESE 9.2 mph - N/A Rain Light Rain
8:36 PM 55.4 °F 55.4 °F 100% 30.10 in 7.0 mi ESE 10.4 mph - N/A   Light Drizzle
8:56 PM 55.4 °F 55.4 °F 100% 30.10 in 10.0 mi ESE 11.5 mph 18.4 mph N/A   Overcast
9:16 PM 55.4 °F 55.4 °F 100% 30.11 in 7.0 mi ESE 12.7 mph 19.6 mph N/A   Overcast
9:36 PM 55.4 °F 55.4 °F 100% 30.11 in 7.0 mi East 12.7 mph 20.7 mph N/A   Overcast
9:56 PM 55.4 °F 55.4 °F 100% 30.11 in 7.0 mi ESE 11.5 mph 17.3 mph N/A   Overcast
10:17 PM 53.6 °F 53.6 °F 100% 30.11 in 5.0 mi ESE 10.4 mph - N/A   Overcast
10:37 PM 53.6 °F 53.6 °F 100% 30.11 in 4.0 mi East 11.5 mph - N/A   Overcast
10:57 PM 55.4 °F 55.4 °F 100% 30.11 in 10.0 mi East 11.5 mph 18.4 mph N/A   Overcast
11:17 PM 55.4 °F 55.4 °F 100% 30.11 in 10.0 mi East 10.4 mph - N/A   Overcast
11:37 PM 55.4 °F 55.4 °F 100% 30.11 in 10.0 mi East 9.2 mph - N/A   Overcast
11:57 PM 53.6 °F 53.6 °F 100% 30.11 in 5.0 mi East 8.1 mph - N/A   Overcast